Location: Hamilton
(37.7830°S, 175.2830°E)
Time: 04:07:21
(UTC+13:00)

COSMOS 2428 - Pass Details

Date: 24 January 2019
Orbit: 845 x 856 km, 71.0° (Epoch: 19 February)

Event Time Altitude Azimuth Distance (km) Brightness Sun altitude
Exits shadow 23:03:04 44° 81° (E) 1,172 3.1 -23.2°
Drops below altitude 10° 23:08:18 10° 145° (SE) 2,513 5.4 -23.9°
Sets 23:10:52 0° 150° (SSE) 3,457 6.2 -24.2°
